Location: Diguira
(13.1838°N, 4.9109°W)
Time: 17:15:49
(UTC+00:00)

Cosmos 1908 Rocket - Pass Details

Date: 18 September 2020
Orbit: 607 x 631 km, 82.5° (Epoch: 25 October)

Event Time Altitude Azimuth Distance (km) Brightness Sun altitude
Rises 18:35:02 0° 188° (S) 2,851 7.0 -4.9°
Reaches altitude 10° 18:37:15 10° 190° (S) 1,949 6.2 -5.4°
Maximum altitude 18:41:32 72° 275° (W) 640 3.9 -6.5°
Drops below altitude 10° 18:45:51 10° 359° (N) 1,957 6.2 -7.5°
Sets 18:48:05 0° 1° (N) 2,864 7.0 -8.1°
